This demonstration page uses our WeatherBlox Daily Observations layout. Learn more.

Left ArrowRight Arrow

Hourly Observations for June 3, 2016

Temp ( °F °C ) Dew Point ( °F °C ) Humidity (%) Winds ( mph kmh ) Pressure ( in mb ) Visibility ( mi km ) Precip ( " mm )
12:52 am 00:52 Clear 69 20.6 64 17.8 84 84 ESE 6 9 30.00 1016 10 16 0.00 0.00
1:52 am 01:52 Cloudy 70 21.1 65 18.3 84 84 ESE 6 9 29.99 1016 10 16 0.00 0.00
2:52 am 02:52 Cloudy 70 21.1 66 18.9 87 87 ESE 3 6 29.98 1015 10 16 0.00 0.00
3:52 am 03:52 Cloudy with Light Rain 69 20.6 65 18.3 87 87 SE 9 15 29.98 1015 8 13 0.02 0.51
4:52 am 04:52 Cloudy with Light Rain 69 20.6 66 18.9 90 90 SE 6 9 29.98 1015 10 16 0.06 1.52
5:23 am 05:23 Mostly Cloudy 68 20 66 18.9 93 93 SE 6 9 30.00 1016 10 16 0.00 0.03
5:40 am 05:40 Mostly Cloudy with Light Rain 70 21 66 19 88 88 ESE 7 11 30.00 1016 9 14 0.00 0.00
5:52 am 05:52 Mostly Cloudy with Light Rain 69 20.6 66 18.9 90 90 ESE 6 9 29.99 1016 10 16 0.00 0.03
6:04 am 06:04 Cloudy with Light Rain 70 21 66 19 88 88 SE 5 7 30.00 1016 10 16 0.00 0.00
6:15 am 06:15 Cloudy with Light Rain 69 20.6 66 18.9 90 90 ESE 6 9 30.00 1016 8 13 0.00 0.03
6:52 am 06:52 Cloudy with Light Rain 69 20.6 66 18.9 90 90 SE 8 13 30.00 1016 9 14 0.01 0.25
7:52 am 07:52 Cloudy with Light Rain 69 20.6 66 18.9 90 90 SSE 8 13 30.00 1016 8 13 0.02 0.51
8:52 am 08:52 Mostly Cloudy 70 21.1 67 19.4 90 90 SSE 7 11 30.01 1016 10 16 0.01 0.25
9:52 am 09:52 Cloudy 71 21.7 66 18.9 84 84 SE 8 13 30.01 1016 10 16 0.00 0.03
10:36 am 10:36 Mostly Cloudy 73 23 66 19 78 78 SE 7 11 29.97 1015 10 16 0.00 0.00
10:49 am 10:49 Mostly Cloudy 73 23 66 19 78 78 ESE 7 11 29.97 1015 10 16 0.00 0.00
10:52 am 10:52 Cloudy 73 22.8 66 18.9 79 79 SE 7 11 30.01 1016 10 16 0.00 0.00
11:04 am 11:04 Cloudy 73 23 66 19 78 78 ESE 8 13 29.97 1015 10 16 0.00 0.00
11:29 am 11:29 Mostly Cloudy 75 23.9 66 18.9 74 74 SSE 10 17 29.97 1015 10 16 0.00 0.00
11:52 am 11:52 Cloudy 75 23.9 66 18.9 74 74 SSE 10 17 30.01 1016 10 16 0.00 0.00
12:06 pm 12:06 Cloudy 75 24 66 19 74 74 S 10 17 29.97 1015 10 16 0.00 0.00
12:52 pm 12:52 Cloudy 75 23.9 66 18.9 74 74 SSE 12 19 30.00 1016 10 16 0.00 0.03
1:52 pm 13:52 Mostly Cloudy 77 25 66 18.9 69 69 SE 14 22 29.98 1015 10 16 0.00 0.00
2:16 pm 14:16 Mostly Cloudy 75 24 64 18 69 69 SE 14 22 29.94 1014 10 16 0.00 0.00
2:39 pm 14:39 Partly Cloudy 74 23.3 65 18.3 74 74 SSE 13 20 29.94 1014 10 16 0.00 0.00
2:52 pm 14:52 Partly Cloudy 74 23.3 66 18.9 76 76 SSE 10 17 29.97 1015 10 16 0.00 0.00
3:06 pm 15:06 Mostly Cloudy 75 24 64 18 69 69 SSE 10 17 29.94 1014 10 16 0.00 0.00
3:13 pm 15:13 Partly Cloudy 74 23.3 65 18.3 74 74 SE 13 20 29.94 1014 10 16 0.00 0.00
3:23 pm 15:23 Mostly Cloudy 74 23.3 65 18.3 74 74 SE 12 19 29.94 1014 10 16 0.00 0.00
3:52 pm 15:52 Mostly Cloudy 74 23.3 65 18.3 74 74 SE 9 15 29.96 1015 10 16 0.00 0.00
4:19 pm 16:19 Partly Cloudy 73 22.8 65 18.3 76 76 SSE 8 13 29.94 1014 10 16 0.00 0.00
4:52 pm 16:52 Mostly Cloudy 74 23.3 65 18.3 74 74 VRB 7 11 29.95 1014 10 16 0.00 0.00
5:36 pm 17:36 Partly Cloudy 73 23 64 18 74 74 SSE 8 13 29.91 1013 10 16 0.00 0.00
5:52 pm 17:52 Partly Cloudy with Light Rain 74 23.3 65 18.3 74 74 SE 9 15 29.93 1014 10 16 0.00 0.03
6:52 pm 18:52 Sunny 73 22.8 65 18.3 76 76 SSE 6 9 29.93 1014 10 16 0.00 0.03
7:52 pm 19:52 Mostly Sunny 73 22.8 66 18.9 79 79 SE 9 15 29.93 1014 10 16 0.00 0.00
8:45 pm 20:45 Mostly Cloudy 72 22.2 66 18.9 82 82 S 3 6 29.97 1015 10 16 0.00 0.00
8:52 pm 20:52 Mostly Cloudy 72 22.2 66 18.9 82 82 SSE 3 6 29.96 1014 10 16 0.00 0.00
9:18 pm 21:18 Cloudy 72 22 66 19 83 83 SSE 6 9 29.97 1015 10 16 0.00 0.00
9:52 pm 21:52 Partly Cloudy 71 21.7 66 18.9 84 84 SSE 8 13 29.96 1015 10 16 0.00 0.00
10:52 pm 22:52 Mostly Cloudy 70 21.1 66 18.9 87 87 SSE 6 9 29.98 1015 10 16 0.00 0.00
11:29 pm 23:29 Partly Cloudy 70 21.1 66 18.9 87 87 SSE 7 11 29.97 1015 10 16 0.00 0.00
11:40 pm 23:40 Mostly Cloudy 70 21 66 19 88 88 SSE 9 15 29.97 1015 10 16 0.00 0.00
11:52 pm 23:52 Mostly Cloudy 70 21.1 66 18.9 87 87 SSE 8 13 29.96 1015 10 16 0.00 0.00

Powered by AerisWeather